Regional Weather Roundup
Issued by NWS

Home | Current Version | Previous Version | Graphics & Text | Print | Product List | Glossary On
Versions: 1 2 3 4 5 6 7 8 9 10 11 12 13 14 15 16 17 18 19 20 21 22 23 24 25 26 27 28 29 30 31 32 33 34 35 36 37 38 39 40 41 42 43 44 45 46 47 48 49 50
000
ASUS45 KTFX 310904
RWRMT
MONTANA HOURLY WEATHER ROUNDUP
NATIONAL WEATHER SERVICE GREAT FALLS MT
204 AM MST SAT JAN 31 2015

NOTE: "FAIR" INDICATES FEW OR NO CLOUDS BELOW 12000 FEET WITH NO
SIGNIFICANT WEATHER AND/OR OBSTRUCTIONS TO VISIBILITY.

* THESE STATIONS ARE NOT UNDER NWS QUALITY CONTROL. THEY DO NOT
   REPORT WEATHER SUCH AS PRECIPITATION OR FOG.

MTZ001>007-043-311000-
WEST OF THE DIVIDE
CITY           SKY/WX    TMP DP  RH WIND       PRES   REMARKS
KALISPELL      FOG       25  25 100 CALM      30.13F VSB 1/2
MISSOULA       FOG       25  21  85 E3        30.15F
BUTTE          MOCLDY    18  14  84 CALM      30.06F
MULLAN PASS    MOCLDY    25  21  85 W3        30.05F
* ANACONDA     MOCLDY    23  14  68 N/A        N/A
* ESSEX        N/A       18  16  92 N/A        N/A
* LINCOLN      N/A       15  12  88 N1         N/A
* LOOKOUT PASS N/A       23  23 100 NW9        N/A   WCI  13
* POLSON       N/A       23  22  96 N2         N/A
* SEELEY LAKE  N/A       12   9  88 E1         N/A
* THOMP F APT  MOCLDY    32  10  40 N7G14      N/A   WCI  25
$$

MTZ008-052>055-311000-
SOUTHWEST MONTANA
CITY           SKY/WX    TMP DP  RH WIND       PRES   REMARKS
BOZEMAN        CLEAR     23  19  85 S7        30.07F WCI  15
DILLON         CLEAR     25  16  69 S12       30.06F WCI  14
* W YELLOWSTON PTCLDY     2  -2  83 N/A        N/A
* THREE FORKS  PTCLDY    19  19 100 N/A        N/A
* BOULDER HILL N/A       29  12  49 S7         N/A   WCI  22
* MONIDA PASS  N/A        9   8  96 W7         N/A   WCI  -2
* RAYNOLDS PAS N/A       16   1  51 S4         N/A
* WHITEHALL    N/A       21  16  81 NW5G10     N/A   WCI  14
* WISE RIVER   N/A       13   8  80 W3         N/A
$$

MTZ009>010-012-014-046-048-049-054-311000-
EAST SLOPES AND CENTRAL MONTANA
CITY           SKY/WX    TMP DP  RH WIND       PRES   REMARKS
CUT BANK       FOG       27  25  92 N24       30.04R VSB 1    WCI  12
GREAT FALLS    CLOUDY    34  19  54 W13G30    29.99R WCI  25
HELENA         CLOUDY    25  19  78 W5        30.06F WCI  19
MALMSTROM AFB  CLOUDY    34  21  59 NW12G22   29.99R WCI  25
* DEARBORN     N/A       33  19  56 S6         N/A   WCI  27
* EAST GLACIER N/A       22  20  92 E11G18     N/A   WCI  11
* MONARCH      N/A       29   9  43 N/A        N/A
* PENDROY      N/A       25  23  92 N24G32     N/A   WCI  10
* ROGERS PASS  N/A       28  16  61 W6G12      N/A   WCI  21
* SWEET GRASS  N/A       24  24 100 N15G20     N/A   WCI  11
$$

MTZ011-013-016-021-035-040-045-047-050-051-311000-
NORTH CENTRAL MONTANA
CITY           SKY/WX    TMP DP  RH WIND       PRES   REMARKS
HAVRE          CLOUDY    27  25  92 NE12      30.01R WCI  16
LEWISTOWN      PTCLDY    25  14  63 SE5       29.96S WCI  19
* N BAR RANCH  CLEAR     23  12  63 VRB6      29.95S WCI  16
* CHESTER      N/A       28  24  85 NW4G11     N/A
* DENTON       N/A       24  19  81 SW9        N/A   WCI  14
* GEYSER       N/A       29  16  58 W8         N/A   WCI  21
* JUDITH GAP   N/A       22  15  74 SW2        N/A
* LOMA         N/A       26  23  88 SW5        N/A   WCI  20
$$

MTZ017>020-022>027-061-062-311000-
NORTHEAST MONTANA
CITY           SKY/WX    TMP DP  RH WIND       PRES   REMARKS
GLASGOW        FOG       27  25  92 E23       30.08R VSB 3    WCI  13
GLENDIVE       CLOUDY    25  23  92 NE16      30.10S VSB 3/4  WCI  12
JORDAN         CLEAR     23  21  92 E6        30.00F WCI  16
SIDNEY         CLOUDY    25  21  85 NE13      30.18F VSB 2 1/2 WCI  13
WOLF POINT     FOG       25  21  85 E21       30.15S WCI  10
* BEAVER HILL  N/A       22  20  92 NE9        N/A   WCI  12
* CIRCLE       N/A       27  25  92 NE14       N/A   WCI  16
* LINDSAY DVD  N/A       24  23  96 E14G21     N/A   WCI  12
* NAVAJO       N/A       19  18  96 E12        N/A   WCI   6
* SACO         N/A       28  26  92 NE10G16    N/A   WCI  19
$$

MTZ028>042-056>058-311000-
SOUTHCENTRAL AND SOUTHEAST MONTANA
CITY           SKY/WX    TMP DP  RH WIND       PRES   REMARKS
BAKER          PTCLDY    23  19  85 SE7       30.07S WCI  15
BILLINGS       PTCLDY    30  25  82 SW14      29.97F WCI  19
LIVINGSTON     CLEAR     30  18  61 SW13      30.03R WCI  20
MILES CITY     MOCLDY    25  21  85 NE5       30.03F WCI  19
* LAUREL APT   PTCLDY    34  21  59 SW10       N/A   WCI  26
* ROUNDUP APT  CLEAR     28  16  61 S10G17     N/A   WCI  19
* ALZADA       N/A       25  22  88 E6         N/A   WCI  18
* HYSHAM       N/A       31  14  49 W2         N/A
* LAME DEER    N/A       32  20  61 S9         N/A   WCI  24
* REED POINT   N/A       19  17  92 N/A        N/A
$$

REGIONAL REPORTS...DAKOTAS
CITY           SKY/WX    TMP DP  RH WIND       PRES   REMARKS
WILLISTON      CLOUDY    25  19  78 E10       30.20F WCI  15
DICKINSON      FOG       25  21  85 NE9       30.12R VSB 1/2  WCI  16
CROSBY         CLOUDY    18  16  92 E16       30.26R WCI   3
WATFORD CITY   CLOUDY    23  23 100 E12G17    30.17S WCI  11
BISMARCK       CLOUDY    23  21  92 N10       30.22R WCI  13
GRAND FORKS    LGT SNOW  16  10  77 N24       30.27R WCI  -2
FARGO          CLOUDY    19  14  81 N15       30.23R WCI   5
BUFFALO SD     MOCLDY    19  18  96 S6        30.01S WCI  11
RAPID CITY     CLOUDY    30  21  69 NW5       30.07S WCI  25
$$

REGIONAL REPORTS...WYOMING/IDAHO/WASHINGTON
CITY           SKY/WX    TMP DP  RH WIND       PRES   REMARKS
GILLETTE       CLOUDY    28  21  75 S3        29.99F
SHERIDAN       CLOUDY    27  19  72 N3        29.95F
CODY           MOCLDY    32  16  52 S10       29.96F WCI  24
YELLOWSTONE LA MOCLDY    -4  -9  79 CALM      30.06F
SALMON         CLOUDY    27  21  78 NE3       30.21F
MULLAN PASS    MOCLDY    25  21  85 W3        30.05S
SAND POINT     CLOUDY    32  30  92 SW9       30.22F WCI  24
SPOKANE        LGT SNOW  30  28  92 S3        30.23S

$$



USA.gov is the U.S. government's official web portal to all federal, state and local government web resources and services.